User: anonymous   Login
Location: Guayaquil
(2.1667°S, 79.9000°W)
Time: 16:21:50
(UTC-05:00)
Language:

NEE 01 PEGASUS - Orbit

View from above orbital plane
View from above orbital plane
View from above satellite
View from above satellite

Ground track
Ground track

The orbit data is extracted from the following two-line orbital elements,

1 39151U 13018B   17115.76263207 +.00000477 +00000-0 +70446-4 0  9993
2 39151 097.9822 207.6169 0016371 215.8786 144.1327 14.79690504215784
Epoch (UTC): 25 April 2017 18:18:11
Eccentricity: 0.0016371
inclination: 97.9822°
perigee height: 619 km
apogee height: 642 km
right ascension of ascending node: 207.6169°
argument of perigee: 215.8786°
revolutions per day: 14.79690504
mean anomaly at epoch: 144.1327°
orbit number at epoch: 21578

The dashed part of the orbit path shows where the satellite is in the earth's shadow,  

DLR